This is the latest recevied weather packets stored in our database for station/object LRSM. If no packets are shown the sender has not sent any weather packets the latest 1 day(s).
| Time | Temp. | Humidity | Pressure | Rain* | Wind** | Luminosity | Snow |
|---|---|---|---|---|---|---|---|
| 1778004212 | 21.11° C | 38% | 1011 hPa | - | 2.24 m/s, 240° | - | - |
| 1778003310 | 22.22° C | 38% | 1011 hPa | - | 2.68 m/s, 260° | - | - |
| 1778002412 | 22.22° C | 38% | 1011 hPa | - | 2.68 m/s, 260° | - | - |
| 1778001512 | 26.11° C | 26% | 1011 hPa | - | 1.34 m/s, 240° | - | - |
| 1778000613 | 26.11° C | 26% | 1011 hPa | - | 1.34 m/s, 240° | - | - |
| 1777999712 | 27.22° C | 24% | 1011 hPa | - | 3.13 m/s, 250° | - | - |
| 1777998812 | 27.22° C | 24% | 1011 hPa | - | 3.13 m/s, 250° | - | - |
| 1777997913 | 27.78° C | 21% | 1011 hPa | - | 3.13 m/s, 270° | - | - |
| 1777997013 | 27.78° C | 21% | 1011 hPa | - | 3.13 m/s, 270° | - | - |
| 1777996113 | 27.22° C | 21% | 1011 hPa | - | 2.24 m/s, 120° | - | - |
| 1777995212 | 27.22° C | 21% | 1011 hPa | - | 2.24 m/s, 120° | - | - |
| 1777994320 | 27.78° C | 21% | 1011 hPa | - | 1.34 m/s, 190° | - | - |
| 1777993413 | 27.78° C | 21% | 1011 hPa | - | 1.34 m/s, 190° | - | - |
| 1777992513 | 27.78° C | 21% | 1012 hPa | - | 1.34 m/s, 150° | - | - |
| 1777991612 | 27.78° C | 21% | 1012 hPa | - | 1.34 m/s, 150° | - | - |
| 1777990712 | 27.78° C | 21% | 1012 hPa | - | 3.13 m/s, 250° | - | - |
| 1777989812 | 27.78° C | 21% | 1012 hPa | - | 3.13 m/s, 250° | - | - |
| 1777988951 | 27.22° C | 21% | 1012 hPa | - | 3.13 m/s, 320° | - | - |
| 1777988013 | 27.22° C | 21% | 1012 hPa | - | 3.13 m/s, 320° | - | - |
| 1777987112 | 27.78° C | 20% | 1013 hPa | - | 3.58 m/s, 280° | - | - |
| 1777986212 | 27.78° C | 20% | 1013 hPa | - | 3.58 m/s, 280° | - | - |
| 1777985312 | 27.78° C | 21% | 1013 hPa | - | 3.13 m/s, 280° | - | - |
| 1777984412 | 27.78° C | 21% | 1013 hPa | - | 3.13 m/s, 280° | - | - |
| 1777983512 | 27.22° C | 21% | 1013 hPa | - | 3.58 m/s, 270° | - | - |
| 1777982620 | 27.22° C | 20% | 1014 hPa | - | 3.13 m/s, 270° | - | - |
* Rain since midnight (hover to see other rain measurements)
** Current wind speed in m/s (hover to see current wind gust speed)